Regional Weather Roundup
Issued by NWS Northern Indiana

Home | Current Version | Previous Version | Text Only | Print | Product List | Glossary Off
Versions: 1 2 3 4 5 6 7 8 9 10 11 12 13 14 15 16 17 18 19 20 21 22 23 24 25 26 27 28 29 30 31 32 33 34 35 36 37 38 39 40 41 42 43 44 45 46 47 48 49 50

000
ASUS43 KIWX 230800
RWRIWX

KIWX WEATHER ROUNDUP
NATIONAL WEATHER SERVICE NORTHERN INDIANA
400 AM EDT THU OCT 23 2014

NOTE: "FAIR" INDICATES FEW OR NO CLOUDS BELOW 12,000 FEET WITH NO
SIGNIFICANT WEATHER AND/OR OBSTRUCTIONS TO VISIBILITY.

* THESE STATIONS ARE NOT UNDER NWS QUALITY CONTROL. THEY ALSO MAY NOT
  REPORT WEATHER SUCH AS PRECIPITATION OR FOG.

INZ001>027-230900-
NORTHERN INDIANA

CITY           SKY/WX    TMP DP  RH WIND       PRES   REMARKS
VALPARAISO     FOG       34  34 100 NE3       30.26F VSB 3/4
SOUTH BEND     CLEAR     37  34  89 CALM      30.27F FOG
GOSHEN         FOG       31  29  92 CALM      30.27S VSB 1
ANGOLA*          N/A     28  16  59 CALM      30.27S
FORT WAYNE     MOCLDY    33  32  96 CALM      30.28F FOG
PERU/GRISSOM   CLEAR     36  36 100 SE5       30.26F FOG

$$
INZ028>050-230900-
CENTRAL INDIANA

CITY           SKY/WX    TMP DP  RH WIND       PRES   REMARKS
LAFAYETTE      CLEAR     38  36  92 E5        30.26F
KOKOMO*        CLEAR     34  32  93 CALM      30.27F
MUNCIE*        CLEAR     35  33  92 CALM      30.26F
INDIANAPOLIS   CLEAR     41  37  86 E3        30.25F

$$
MIZ043>046-050>051-056>058-064>065-071>073-077>080-230900-
SOUTHWEST LOWER MICHIGAN

CITY           SKY/WX    TMP DP  RH WIND       PRES   REMARKS
BATTLE CREEK   MOCLDY    32  29  88 CALM      30.27F FOG
BENTON HARBOR  CLEAR     33  33 100 SE3       30.26F FOG
COLDWATER*     FOG       31  31  99 CALM      30.27F VSB 1/2
HILLSDALE*     FOG       30  30 100 CALM      30.26S VSB 1/4
HOLLAND        MOCLDY    33  31  92 CALM      30.27F FOG
GRAND RAPIDS   PTCLDY    32  29  88 CALM      30.27F
KALAMAZOO      FOG       31  29  92 CALM      30.27F VSB 1
STURGIS*       FOG       30  30 100 CALM      30.26F VSB 1/2
THREE RIVERS*  FOG       33  32  97 CALM      30.27F VSB<1/4

$$
OHZ001>008-015>018-024>025-230900-
NORTHWEST OHIO

CITY           SKY/WX    TMP DP  RH WIND       PRES   REMARKS
DEFIANCE       CLEAR     34  32  92 CALM      30.28S FOG
FINDLAY        CLEAR     40  37  89 W5        30.25S
TOLEDO EXPRESS CLEAR     35  32  88 CALM      30.26F
TOLEDO METCALF CLEAR     38  35  89 NW5       30.26F
LIMA           CLEAR     39  36  89 NW5       30.26S

$$
AND FOR LAKE MICHIGAN COASTAL AND OPEN LAKE BUOY OBSERVATIONS

STATION/POSITION TEMP    WIND        PRES    VSBY  WAVE
                 AIR SEA DIR/SP/G                  HT/PER
                 (F)     (DEG/KT/KT) (MB)    (MI)  (FT/S)
CALUMET HARBOR    44     170/  7/ 11 1022.9F
MICHIGAN CITY     42     130/  9/ 11   N/A
SAINT JOSEPH      38                 1024.7F
SOUTH LAKE BUOY   50 54  170/ 12/ 14 1024.8F         1/ 3

$$
&&



USA.gov is the U.S. government's official web portal to all federal, state and local government web resources and services.